Time,TemperatureF,DewpointF,PressureIn,WindDirection,WindDirectionDegrees,WindSpeedMPH,WindSpeedGustMPH,Humidity,HourlyPrecipIn,Conditions,Clouds,dailyrainin,SoftwareType,DateUTC
2013-02-05 00:01:00,23.0,20.0,29.85,South,189,5.0,10.0,89,0.00,,,0.00,,2013-02-05 06:01:00,
2013-02-05 00:11:00,23.0,20.0,29.85,South,189,5.0,10.0,89,0.00,,,0.00,,2013-02-05 06:11:00,
2013-02-05 00:21:00,23.0,20.0,29.82,South,188,4.0,10.0,89,0.00,,,0.00,,2013-02-05 06:21:00,
2013-02-05 00:32:00,23.0,20.0,29.82,South,180,4.0,12.0,89,0.00,,,0.00,,2013-02-05 06:32:00,
2013-02-05 00:42:00,23.0,20.0,29.82,South,180,4.0,12.0,89,0.00,,,0.00,,2013-02-05 06:42:00,
2013-02-05 00:52:00,24.0,21.0,29.80,SSE,161,4.0,12.0,88,0.00,,,0.00,,2013-02-05 06:52:00,
2013-02-05 01:01:00,24.0,21.0,29.79,SSW,198,5.0,15.0,87,0.00,,,0.00,,2013-02-05 07:01:00,
2013-02-05 01:11:00,24.0,21.0,29.79,SSW,198,5.0,15.0,87,0.00,,,0.00,,2013-02-05 07:11:00,
2013-02-05 01:22:00,24.0,21.0,29.78,South,180,7.0,15.0,88,0.00,,,0.00,,2013-02-05 07:22:00,
2013-02-05 01:31:00,24.0,21.0,29.78,SW,224,6.0,15.0,88,0.00,,,0.00,,2013-02-05 07:31:00,
2013-02-05 01:41:00,24.0,21.0,29.78,SW,224,6.0,15.0,88,0.00,,,0.00,,2013-02-05 07:41:00,
2013-02-05 01:52:00,24.0,21.0,29.78,SW,230,5.0,17.0,88,0.00,,,0.00,,2013-02-05 07:52:00,
2013-02-05 02:01:00,24.0,21.0,29.78,SSW,209,5.0,11.0,88,0.00,,,0.00,,2013-02-05 08:01:00,
2013-02-05 02:11:00,24.0,21.0,29.78,SSW,209,5.0,11.0,88,0.00,,,0.00,,2013-02-05 08:11:00,
2013-02-05 02:21:00,24.0,21.0,29.78,South,177,3.0,16.0,89,0.00,,,0.00,,2013-02-05 08:21:00,
2013-02-05 02:31:00,24.0,21.0,29.78,SW,219,6.0,13.0,89,0.00,,,0.00,,2013-02-05 08:31:00,
2013-02-05 02:41:00,24.0,21.0,29.78,SW,219,6.0,13.0,89,0.00,,,0.00,,2013-02-05 08:41:00,
2013-02-05 02:52:00,25.0,22.0,29.77,SW,217,4.0,10.0,89,0.00,,,0.00,,2013-02-05 08:52:00,
2013-02-05 03:02:00,25.0,22.0,29.78,West,269,4.0,14.0,89,0.00,,,0.00,,2013-02-05 09:02:00,
2013-02-05 03:11:00,25.0,22.0,29.77,SW,221,7.0,11.0,89,0.00,,,0.00,,2013-02-05 09:11:00,
2013-02-05 03:21:00,25.0,22.0,29.77,SW,221,7.0,11.0,89,0.00,,,0.00,,2013-02-05 09:21:00,
2013-02-05 03:32:00,25.0,22.0,29.76,SW,215,5.0,9.0,89,0.00,,,0.00,,2013-02-05 09:32:00,
2013-02-05 03:42:00,25.0,22.0,29.76,SW,215,5.0,9.0,89,0.00,,,0.00,,2013-02-05 09:42:00,
2013-02-05 03:52:00,24.0,21.0,29.76,South,185,4.0,11.0,89,0.00,,,0.00,,2013-02-05 09:52:00,
2013-02-05 04:01:00,24.0,22.0,29.76,WSW,252,3.0,9.0,90,0.00,,,0.00,,2013-02-05 10:01:00,
2013-02-05 04:11:00,24.0,22.0,29.75,WSW,249,2.0,8.0,90,0.00,,,0.00,,2013-02-05 10:11:00,
2013-02-05 04:21:00,24.0,22.0,29.75,WSW,249,2.0,8.0,90,0.00,,,0.00,,2013-02-05 10:21:00,
2013-02-05 04:32:00,24.0,22.0,29.75,SW,227,4.0,8.0,91,0.00,,,0.00,,2013-02-05 10:32:00,
2013-02-05 04:42:00,24.0,22.0,29.75,SW,227,4.0,8.0,91,0.00,,,0.00,,2013-02-05 10:42:00,
2013-02-05 04:52:00,24.0,22.0,29.75,WSW,250,3.0,8.0,91,0.00,,,0.00,,2013-02-05 10:52:00,
2013-02-05 05:01:00,23.0,21.0,29.75,South,170,3.0,7.0,91,0.00,,,0.00,,2013-02-05 11:01:00,
2013-02-05 05:11:00,23.0,21.0,29.75,South,170,3.0,7.0,91,0.00,,,0.00,,2013-02-05 11:11:00,
2013-02-05 05:22:00,23.0,21.0,29.75,SSW,197,3.0,6.0,92,0.00,,,0.00,,2013-02-05 11:22:00,
2013-02-05 05:32:00,23.0,21.0,29.75,SW,235,4.0,7.0,92,0.00,,,0.00,,2013-02-05 11:32:00,
2013-02-05 05:42:00,23.0,21.0,29.75,SW,235,4.0,7.0,92,0.00,,,0.00,,2013-02-05 11:42:00,
2013-02-05 05:52:00,23.0,21.0,29.76,SW,221,3.0,7.0,92,0.00,,,0.00,,2013-02-05 11:52:00,
2013-02-05 06:01:00,23.0,21.0,29.76,SW,234,2.0,7.0,92,0.00,,,0.00,,2013-02-05 12:01:00,
2013-02-05 06:12:00,23.0,21.0,29.76,SW,234,2.0,7.0,92,0.00,,,0.00,,2013-02-05 12:12:00,
2013-02-05 06:22:00,23.0,21.0,29.76,SW,219,2.0,5.0,92,0.00,,,0.00,,2013-02-05 12:22:00,
2013-02-05 06:32:00,23.0,21.0,29.76,SW,223,2.0,5.0,93,0.00,,,0.00,,2013-02-05 12:32:00,
2013-02-05 06:42:00,23.0,21.0,29.76,SW,223,2.0,5.0,93,0.00,,,0.00,,2013-02-05 12:42:00,
2013-02-05 06:52:00,24.0,22.0,29.76,WSW,246,3.0,5.0,93,0.00,,,0.00,,2013-02-05 12:52:00,
2013-02-05 07:01:00,25.0,23.0,29.76,WSW,242,1.0,4.0,93,0.00,,,0.00,,2013-02-05 13:01:00,
2013-02-05 07:12:00,25.0,23.0,29.76,WSW,242,1.0,4.0,93,0.00,,,0.00,,2013-02-05 13:12:00,
2013-02-05 07:22:00,26.0,25.0,29.77,WSW,246,1.0,3.0,94,0.00,,,0.00,,2013-02-05 13:22:00,
2013-02-05 07:32:00,27.0,26.0,29.77,WSW,248,0.0,3.0,94,0.00,,,0.00,,2013-02-05 13:32:00,
2013-02-05 07:42:00,27.0,26.0,29.77,WSW,248,0.0,3.0,94,0.00,,,0.00,,2013-02-05 13:42:00,
2013-02-05 07:52:00,27.0,26.0,29.78,West,262,0.0,3.0,94,0.00,,,0.00,,2013-02-05 13:52:00,
2013-02-05 08:01:00,28.0,27.0,29.79,West,263,0.0,2.0,94,0.00,,,0.00,,2013-02-05 14:01:00,
2013-02-05 08:12:00,28.0,27.0,29.79,West,263,0.0,2.0,94,0.00,,,0.00,,2013-02-05 14:12:00,
2013-02-05 08:21:00,28.0,27.0,29.79,West,263,0.0,2.0,94,0.00,,,0.00,,2013-02-05 14:21:00,
2013-02-05 08:31:00,30.0,29.0,29.80,WNW,292,2.0,6.0,95,0.00,,,0.00,,2013-02-05 14:31:00,
2013-02-05 08:42:00,30.0,29.0,29.80,WNW,292,2.0,6.0,95,0.00,,,0.00,,2013-02-05 14:42:00,
2013-02-05 08:52:00,31.0,29.0,29.81,NW,304,2.0,7.0,94,0.00,,,0.00,,2013-02-05 14:52:00,
2013-02-05 09:02:00,31.0,29.0,29.83,West,281,4.0,11.0,94,0.00,,,0.00,,2013-02-05 15:02:00,
2013-02-05 09:11:00,31.0,29.0,29.83,West,281,4.0,11.0,94,0.00,,,0.00,,2013-02-05 15:11:00,
2013-02-05 09:21:00,31.0,29.0,29.83,West,273,5.0,13.0,94,0.00,,,0.00,,2013-02-05 15:21:00,
2013-02-05 09:32:00,32.0,30.0,29.84,West,277,4.0,10.0,94,0.00,,,0.00,,2013-02-05 15:32:00,
2013-02-05 09:41:00,32.0,30.0,29.84,West,277,4.0,10.0,94,0.00,,,0.00,,2013-02-05 15:41:00,
2013-02-05 09:52:00,32.0,30.0,29.84,West,277,4.0,10.0,94,0.00,,,0.00,,2013-02-05 15:52:00,
2013-02-05 10:01:00,33.0,31.0,29.86,WNW,284,3.0,10.0,92,0.00,,,0.00,,2013-02-05 16:01:00,
2013-02-05 10:11:00,33.0,31.0,29.86,WNW,284,3.0,10.0,92,0.00,,,0.00,,2013-02-05 16:11:00,
2013-02-05 10:22:00,33.0,31.0,29.87,NW,314,4.0,9.0,91,0.00,,,0.00,,2013-02-05 16:22:00,
2013-02-05 10:32:00,33.0,31.0,29.88,West,275,4.0,10.0,91,0.00,,,0.00,,2013-02-05 16:32:00,
2013-02-05 10:42:00,33.0,31.0,29.88,West,275,4.0,10.0,91,0.00,,,0.00,,2013-02-05 16:42:00,
2013-02-05 10:52:00,33.0,30.0,29.88,West,271,3.0,10.0,90,0.00,,,0.00,,2013-02-05 16:52:00,
2013-02-05 11:01:00,34.0,31.0,29.89,West,268,4.0,13.0,89,0.00,,,0.00,,2013-02-05 17:01:00,
2013-02-05 11:11:00,34.0,31.0,29.89,West,268,4.0,13.0,89,0.00,,,0.00,,2013-02-05 17:11:00,
2013-02-05 11:21:00,34.0,31.0,29.90,WNW,292,5.0,9.0,89,0.00,,,0.00,,2013-02-05 17:21:00,
2013-02-05 11:32:00,35.0,32.0,29.91,NW,317,4.0,9.0,88,0.00,,,0.00,,2013-02-05 17:32:00,
2013-02-05 11:42:00,35.0,32.0,29.91,NW,317,4.0,9.0,88,0.00,,,0.00,,2013-02-05 17:42:00,
2013-02-05 11:52:00,35.0,32.0,29.91,NW,317,4.0,9.0,88,0.00,,,0.00,,2013-02-05 17:52:00,
2013-02-05 12:02:00,35.0,32.0,29.91,WNW,284,7.0,11.0,87,0.00,,,0.00,,2013-02-05 18:02:00,
2013-02-05 12:11:00,35.0,32.0,29.91,WNW,284,7.0,11.0,87,0.00,,,0.00,,2013-02-05 18:11:00,
2013-02-05 12:22:00,35.0,31.0,29.92,West,269,4.0,10.0,86,0.00,,,0.00,,2013-02-05 18:22:00,
2013-02-05 12:32:00,34.0,31.0,29.92,WNW,288,5.0,11.0,87,0.00,,,0.00,,2013-02-05 18:32:00,
2013-02-05 12:42:00,34.0,31.0,29.92,WNW,288,5.0,11.0,87,0.00,,,0.00,,2013-02-05 18:42:00,
2013-02-05 12:52:00,34.0,31.0,29.93,WSW,249,5.0,13.0,87,0.00,,,0.00,,2013-02-05 18:52:00,
2013-02-05 13:02:00,33.0,29.0,29.93,WNW,298,7.0,15.0,86,0.00,,,0.00,,2013-02-05 19:02:00,
2013-02-05 13:11:00,33.0,29.0,29.93,WNW,298,7.0,15.0,86,0.00,,,0.00,,2013-02-05 19:11:00,
2013-02-05 13:21:00,33.0,29.0,29.94,NNE,22,8.0,13.0,86,0.00,,,0.00,,2013-02-05 19:21:00,
2013-02-05 13:32:00,33.0,29.0,29.95,West,277,8.0,20.0,86,0.00,,,0.00,,2013-02-05 19:32:00,
2013-02-05 13:42:00,33.0,29.0,29.95,West,277,8.0,20.0,86,0.00,,,0.00,,2013-02-05 19:42:00,
2013-02-05 13:52:00,32.0,27.0,29.96,West,273,9.0,26.0,83,0.00,,,0.00,,2013-02-05 19:52:00,
2013-02-05 14:01:00,31.0,27.0,29.96,West,269,8.0,21.0,84,0.00,,,0.00,,2013-02-05 20:01:00,
2013-02-05 14:11:00,31.0,27.0,29.96,West,269,8.0,21.0,84,0.00,,,0.00,,2013-02-05 20:11:00,
2013-02-05 14:21:00,31.0,27.0,29.97,WNW,291,4.0,18.0,84,0.00,,,0.00,,2013-02-05 20:21:00,
2013-02-05 14:32:00,29.0,24.0,29.98,WNW,292,11.0,22.0,82,0.00,,,0.00,,2013-02-05 20:32:00,
2013-02-05 14:42:00,29.0,24.0,29.98,WNW,292,11.0,22.0,82,0.00,,,0.00,,2013-02-05 20:42:00,
2013-02-05 14:52:00,28.0,22.0,29.98,WSW,257,14.0,27.0,78,0.00,,,0.00,,2013-02-05 20:52:00,
2013-02-05 15:02:00,29.0,24.0,29.99,NW,309,5.0,22.0,81,0.00,,,0.00,,2013-02-05 21:02:00,
2013-02-05 15:11:00,29.0,24.0,29.99,NW,309,5.0,22.0,81,0.00,,,0.00,,2013-02-05 21:11:00,
2013-02-05 15:22:00,28.0,23.0,30.00,West,281,8.0,18.0,82,0.00,,,0.00,,2013-02-05 21:22:00,
2013-02-05 15:32:00,27.0,22.0,30.01,NW,305,3.0,22.0,81,0.00,,,0.00,,2013-02-05 21:32:00,
2013-02-05 15:42:00,27.0,22.0,30.01,NW,305,3.0,22.0,81,0.00,,,0.00,,2013-02-05 21:42:00,
2013-02-05 15:52:00,26.0,21.0,30.02,WNW,288,3.0,16.0,82,0.00,,,0.00,,2013-02-05 21:52:00,
2013-02-05 16:01:00,25.0,20.0,30.03,NNW,347,3.0,17.0,82,0.00,,,0.00,,2013-02-05 22:01:00,
2013-02-05 16:11:00,25.0,20.0,30.03,NNW,347,3.0,17.0,82,0.00,,,0.00,,2013-02-05 22:11:00,
2013-02-05 16:21:00,24.0,20.0,30.03,WNW,284,4.0,12.0,83,0.00,,,0.00,,2013-02-05 22:21:00,
2013-02-05 16:32:00,23.0,19.0,30.04,NW,319,3.0,17.0,83,0.00,,,0.00,,2013-02-05 22:32:00,
2013-02-05 16:42:00,23.0,19.0,30.04,NW,319,3.0,17.0,83,0.00,,,0.00,,2013-02-05 22:42:00,
2013-02-05 16:52:00,22.0,18.0,30.05,NW,304,4.0,13.0,83,0.00,,,0.00,,2013-02-05 22:52:00,
2013-02-05 17:02:00,21.0,17.0,30.05,West,278,3.0,12.0,83,0.00,,,0.00,,2013-02-05 23:02:00,
2013-02-05 17:11:00,21.0,17.0,30.05,West,278,3.0,12.0,83,0.00,,,0.00,,2013-02-05 23:11:00,
2013-02-05 17:22:00,21.0,17.0,30.06,NW,314,2.0,11.0,84,0.00,,,0.00,,2013-02-05 23:22:00,
2013-02-05 17:32:00,20.0,16.0,30.06,WNW,296,1.0,6.0,84,0.00,,,0.00,,2013-02-05 23:32:00,
2013-02-05 17:42:00,20.0,16.0,30.06,WNW,296,1.0,6.0,84,0.00,,,0.00,,2013-02-05 23:42:00,
2013-02-05 17:52:00,20.0,16.0,30.06,WNW,298,3.0,5.0,85,0.00,,,0.00,,2013-02-05 23:52:00,
2013-02-05 18:02:00,20.0,16.0,30.06,WNW,302,3.0,10.0,85,0.00,,,0.00,,2013-02-06 00:02:00,
2013-02-05 18:11:00,20.0,16.0,30.06,WNW,302,3.0,10.0,85,0.00,,,0.00,,2013-02-06 00:11:00,
2013-02-05 18:22:00,19.0,15.0,30.07,North,355,1.0,11.0,85,0.00,,,0.00,,2013-02-06 00:22:00,
2013-02-05 18:32:00,18.0,14.0,30.08,WNW,284,1.0,5.0,85,0.00,,,0.00,,2013-02-06 00:32:00,
2013-02-05 18:42:00,18.0,14.0,30.08,WNW,284,1.0,5.0,85,0.00,,,0.00,,2013-02-06 00:42:00,
2013-02-05 18:52:00,18.0,15.0,30.08,WNW,296,1.0,4.0,86,0.00,,,0.00,,2013-02-06 00:52:00,
2013-02-05 19:02:00,18.0,15.0,30.09,WNW,288,1.0,5.0,87,0.00,,,0.00,,2013-02-06 01:02:00,
2013-02-05 19:11:00,18.0,15.0,30.09,WNW,288,1.0,5.0,87,0.00,,,0.00,,2013-02-06 01:11:00,
2013-02-05 19:22:00,18.0,15.0,30.10,West,277,1.0,4.0,87,0.00,,,0.00,,2013-02-06 01:22:00,
2013-02-05 19:32:00,17.0,14.0,30.10,West,280,2.0,3.0,88,0.00,,,0.00,,2013-02-06 01:32:00,
2013-02-05 19:42:00,17.0,14.0,30.10,West,280,2.0,3.0,88,0.00,,,0.00,,2013-02-06 01:42:00,
2013-02-05 19:53:00,17.0,14.0,30.11,West,281,1.0,3.0,88,0.00,,,0.00,,2013-02-06 01:53:00,
2013-02-05 20:01:00,16.0,13.0,30.10,West,281,0.0,2.0,88,0.00,,,0.00,,2013-02-06 02:01:00,
2013-02-05 20:11:00,16.0,13.0,30.10,West,281,0.0,2.0,88,0.00,,,0.00,,2013-02-06 02:11:00,
2013-02-05 20:22:00,16.0,13.0,30.10,West,281,0.0,1.0,88,0.00,,,0.00,,2013-02-06 02:22:00,
2013-02-05 20:32:00,16.0,13.0,30.11,West,281,0.0,2.0,88,0.00,,,0.00,,2013-02-06 02:32:00,
2013-02-05 20:42:00,16.0,13.0,30.11,West,281,0.0,2.0,88,0.00,,,0.00,,2013-02-06 02:42:00,
2013-02-05 20:52:00,15.0,12.0,30.12,West,275,1.0,3.0,88,0.00,,,0.00,,2013-02-06 02:52:00,
2013-02-05 21:02:00,15.0,12.0,30.13,West,275,0.0,2.0,88,0.00,,,0.00,,2013-02-06 03:02:00,
2013-02-05 21:12:00,15.0,12.0,30.13,West,275,0.0,2.0,88,0.00,,,0.00,,2013-02-06 03:12:00,
2013-02-05 21:22:00,15.0,12.0,30.13,West,275,0.0,0.0,88,0.00,,,0.00,,2013-02-06 03:22:00,
2013-02-05 21:32:00,14.0,11.0,30.13,West,275,1.0,3.0,88,0.00,,,0.00,,2013-02-06 03:32:00,
2013-02-05 21:42:00,14.0,11.0,30.13,West,275,1.0,3.0,88,0.00,,,0.00,,2013-02-06 03:42:00,
2013-02-05 21:53:00,14.0,11.0,30.14,West,275,0.0,3.0,89,0.00,,,0.00,,2013-02-06 03:53:00,
2013-02-05 22:02:00,14.0,11.0,30.13,West,275,0.0,2.0,88,0.00,,,0.00,,2013-02-06 04:02:00,
2013-02-05 22:11:00,14.0,11.0,30.13,West,275,0.0,2.0,88,0.00,,,0.00,,2013-02-06 04:11:00,
2013-02-05 22:21:00,13.0,10.0,30.14,West,275,0.0,0.0,88,0.00,,,0.00,,2013-02-06 04:21:00,
2013-02-05 22:32:00,13.0,10.0,30.14,West,275,0.0,0.0,88,0.00,,,0.00,,2013-02-06 04:32:00,
2013-02-05 22:42:00,13.0,10.0,30.14,West,275,0.0,0.0,88,0.00,,,0.00,,2013-02-06 04:42:00,
2013-02-05 22:52:00,12.0,9.0,30.14,West,275,0.0,0.0,89,0.00,,,0.00,,2013-02-06 04:52:00,
2013-02-05 23:02:00,12.0,9.0,30.14,West,275,0.0,0.0,89,0.00,,,0.00,,2013-02-06 05:02:00,
2013-02-05 23:12:00,12.0,9.0,30.14,West,275,0.0,0.0,89,0.00,,,0.00,,2013-02-06 05:12:00,
2013-02-05 23:22:00,11.0,8.0,30.14,West,275,0.0,0.0,89,0.00,,,0.00,,2013-02-06 05:22:00,
2013-02-05 23:31:00,11.0,9.0,30.14,West,275,0.0,0.0,90,0.00,,,0.00,,2013-02-06 05:31:00,
2013-02-05 23:41:00,11.0,9.0,30.14,West,275,0.0,0.0,90,0.00,,,0.00,,2013-02-06 05:41:00,
2013-02-05 23:53:00,11.0,9.0,30.14,West,275,0.0,0.0,91,0.00,,,0.00,,2013-02-06 05:53:00,